GFSNIL_con_lsi_021.txt.gz
Lid_Strength_Index
19 19 18 18 18 18 17 17 16 16 16 16 14 15 15 15 14 12 9 8 5 5
20 19 19 18 18 18 17 16 16 16 16 16 15 15 15 14 13 12 12 10 7 5
20 19 19 19 19 18 17 17 17 17 16 16 15 16 16 16 15 14 12 9 9 6
20 20 19 19 19 18 17 17 17 17 16 16 16 16 16 16 16 14 14 12 11 8
20 20 20 20 19 18 18 18 17 17 17 16 17 16 16 16 16 16 15 13 11 11
21 21 21 20 19 19 18 18 18 18 18 17 18 17 17 16 16 16 15 13 12 10
22 21 20 20 19 19 19 19 19 18 18 18 18 18 17 17 17 16 15 13 12 11
21 21 20 20 20 20 20 20 19 19 18 19 19 18 17 16 17 16 15 13 13 12
22 21 21 21 21 21 21 21 20 19 19 20 18 17 15 14 15 15 15 14 13 13
23 23 23 23 23 22 22 21 19 19 20 20 19 16 14 14 15 15 15 14 13 14
24 24 24 25 24 23 22 21 20 20 21 20 18 15 13 13 15 15 15 15 14 15
25 26 26 27 25 23 23 22 21 20 21 20 19 14 12 13 15 16 16 15 15 15
26 27 27 26 24 24 23 21 21 21 21 19 18 14 12 11 15 17 16 15 15 14
27 28 26 24 24 24 23 21 22 22 21 19 18 16 13 11 14 15 16 16 16 15

GFSNIL_con_lsi_024.txt.gz
Lid_Strength_Index
20 21 21 20 20 20 20 19 18 17 17 16 16 16 16 16 15 15 15 15 14 13
21 21 21 21 20 20 19 19 18 18 17 17 17 16 16 16 16 15 14 14 13 13
21 21 21 21 21 20 20 19 19 18 18 17 17 16 16 16 15 15 15 15 15 14
21 21 21 21 21 20 20 20 19 19 18 18 17 17 17 16 16 15 16 16 16 15
22 21 22 22 21 20 20 20 19 19 19 19 18 18 18 17 16 16 17 16 16 15
22 23 22 22 21 21 21 21 20 20 20 20 19 18 18 17 17 17 17 17 16 15
23 23 22 22 21 21 21 21 21 21 21 20 19 18 17 17 18 18 17 16 16 15
23 22 22 22 22 22 22 22 22 21 21 20 19 17 17 17 18 18 17 16 16 15
23 23 23 23 23 23 23 23 23 22 21 21 19 16 14 15 16 16 16 16 15 15
25 25 24 24 24 24 24 24 23 22 22 21 19 15 15 15 15 15 15 15 15 15
26 26 26 26 26 25 24 24 24 23 22 20 19 16 15 15 15 14 14 14 15 15
26 27 27 28 26 25 24 25 24 22 22 21 20 17 15 15 15 14 14 13 14 15
26 28 28 27 27 25 25 24 23 22 20 20 21 17 16 15 16 16 14 13 14 14
27 28 28 27 26 26 26 24 24 22 19 19 19 19 16 15 16 16 14 14 15 15

GFSNIL_con_lsi_030.txt.gz
Lid_Strength_Index
15 16 17 17 17 18 18 17 17 17 17 16 16 16 16 16 15 15 15 15 14 14
16 17 17 18 18 18 18 18 18 17 17 17 17 17 16 16 16 16 15 14 14 14
17 17 18 18 19 18 18 18 18 18 18 18 17 17 17 17 16 16 15 15 15 15
18 18 19 19 19 19 19 19 19 19 19 18 18 17 18 18 17 18 17 17 16 16
19 19 19 19 19 19 19 19 19 19 19 19 19 18 19 19 18 19 19 18 18 17
20 20 20 20 20 20 20 20 20 20 20 20 20 19 19 19 19 19 18 18 17 18
20 20 20 20 21 21 20 21 21 20 20 20 20 20 19 19 19 19 18 17 17 16
21 21 21 22 21 21 21 21 21 21 21 20 20 20 20 19 18 18 17 17 16 14
22 22 22 22 22 22 22 22 21 22 21 21 20 19 18 17 17 17 18 18 15 13
23 23 23 23 23 23 23 22 22 22 22 22 21 19 17 17 17 17 17 16 15 15
23 24 24 24 24 24 23 23 23 23 22 22 21 18 17 16 17 17 16 14 14 15
24 24 25 26 25 24 23 23 23 22 22 23 22 19 16 16 18 17 15 14 15 15
24 25 26 25 25 24 24 24 23 23 22 22 21 18 17 17 16 17 15 15 14 14
25 26 26 25 25 25 25 24 25 24 21 20 19 18 17 15 15 14 15 16 16 15

GFSNIL_con_lsi_033.txt.gz
Lid_Strength_Index
13 14 14 15 15 16 16 16 15 16 16 16 16 16 16 16 16 16 16 16 16 15
14 14 15 16 16 16 16 16 16 17 17 17 17 17 17 17 17 16 16 16 15 15
15 15 15 16 17 17 17 17 17 18 17 17 17 17 17 17 17 17 17 16 16 15
16 16 16 17 17 17 17 18 18 18 18 18 18 18 18 18 18 18 17 17 17 17
16 17 18 18 18 18 19 18 18 19 19 19 19 19 19 19 19 19 19 18 18 18
17 18 19 19 19 19 19 19 19 19 20 20 20 20 20 19 19 19 19 19 18 18
19 19 19 19 20 20 20 20 20 20 20 20 20 20 20 20 20 19 19 18 17 17
19 19 20 20 20 20 20 20 20 21 21 21 20 20 20 19 19 19 18 17 17 17
20 21 21 21 21 21 21 21 21 21 21 21 20 19 18 18 19 18 19 18 17 16
21 21 21 21 22 22 22 21 22 21 21 21 21 19 18 18 18 18 18 18 17 17
21 22 22 22 23 22 22 22 22 21 21 22 21 19 18 17 18 18 18 17 16 16
21 22 23 23 23 22 22 22 22 22 22 23 23 20 18 17 18 18 17 16 15 16
22 23 23 23 23 22 22 23 22 23 23 22 22 19 18 17 17 18 17 16 15 15
23 24 23 23 23 24 24 23 24 24 22 21 20 20 17 16 16 16 16 17 18 16

GFSNIL_con_lsi_036.txt.gz
Lid_Strength_Index
15 14 15 16 17 18 18 18 18 18 18 19 18 18 18 18 18 18 18 18 18 18
15 16 16 17 17 18 19 18 19 19 19 19 19 18 18 18 18 18 18 17 17 18
15 16 17 17 18 19 19 19 19 20 20 19 19 19 19 19 18 18 18 18 18 18
16 17 17 18 19 19 19 19 20 20 20 19 19 19 20 20 19 19 19 19 19 19
17 17 18 19 20 19 20 20 20 20 20 20 20 20 20 20 20 20 20 20 20 19
17 18 19 19 20 20 20 20 20 20 21 21 20 20 20 20 21 21 20 20 20 19
18 18 19 20 20 20 21 21 21 20 20 20 21 20 21 20 21 20 20 19 19 19
18 19 20 20 20 21 21 21 20 21 21 20 21 21 21 20 20 20 20 19 18 18
19 20 20 20 20 20 20 21 20 21 21 21 21 19 18 18 20 19 20 20 19 18
20 20 20 20 20 21 21 21 21 22 22 22 22 19 18 18 19 19 19 19 19 18
20 21 21 21 21 22 21 21 22 22 22 22 22 19 19 18 19 19 19 19 18 18
21 21 21 22 22 22 21 22 22 22 23 23 23 21 19 18 20 19 19 18 17 16
20 20 21 22 22 21 22 22 22 22 23 24 26 21 19 18 19 20 19 18 16 16
20 21 21 21 22 22 23 23 23 24 23 23 22 22 19 17 18 19 18 19 18 17